カタログに戻る

HAIYANG 4A

運用中科学SSO
NORAD 61936·PAYLOAD·🇨🇳 China

打ち上げ Nov 13, 2024 から Taiyuan Satellite Launch Center

Loading…

次のパス (今後24時間)

TLE

最新Source: Space-Track

元期: Sep 14, 2026, 23:27 UTC

1 61936U 24208A   26257.97720536  .00000329  00000-0  58585-4 0  9991
2 61936  98.0072 264.5181 0000932 111.1669 248.9638 14.73287672 98665

AllMySatでHAIYANG 4Aをリアルタイム追跡

Download on the App Store